• Em Portugal
  • Lista de países
  • Para 7 dias
  • Temperatura da água
  • Mapas de satélite
  • Mapa do tempo
  • Widgets de tempo
  • user-avatar
    Iniciar Sessão

    Previsão horária em La Massana

    Hoje, 24 Fevereiro, Sábado

    Tempo Temperatura Precipitação Vento Pressão Humidade
    00:00 -10°C° 0 mm 1 m/s 599 mmHg 75%
    01:00 -10°C° 0 mm 1 m/s 599 mmHg 74%
    02:00 -10°C° 0 mm 1 m/s 599 mmHg 73%
    03:00 -10°C° 0 mm 1 m/s 599 mmHg 72%
    04:00 -10°C° 0 mm 1 m/s 599 mmHg 71%
    05:00 -10°C° 0 mm 1 m/s 599 mmHg 70%
    06:00 -10°C° 0 mm 1 m/s 599 mmHg 67%
    07:00 -8°C° 0 mm 1 m/s 600 mmHg 61%
    08:00 -5°C° 0 mm 0 m/s 601 mmHg 55%
    09:00 -3°C° 0 mm 0 m/s 602 mmHg 49%
    10:00 -2°C° 0 mm 0 m/s 603 mmHg 48%
    11:00 0°C° 0 mm 1 m/s 603 mmHg 47%
    12:00 +1°C° 0 mm 1 m/s 603 mmHg 46%
    13:00 +1°C° 0 mm 1 m/s 603 mmHg 49%
    14:00 +1°C° 0 mm 1 m/s 603 mmHg 51%
    15:00 +1°C° 0 mm 1 m/s 603 mmHg 53%
    16:00 -1°C° 0,1 mm 1 m/s 602 mmHg 61%
    17:00 -3°C° 0,1 mm 1 m/s 602 mmHg 69%
    18:00 -5°C° 0,1 mm 0 m/s 601 mmHg 77%
    19:00 -6°C° 0 mm 1 m/s 601 mmHg 79%
    20:00 -6°C° 0 mm 1 m/s 602 mmHg 80%
    21:00 -6°C° 0 mm 1 m/s 602 mmHg 81%
    22:00 -7°C° 0 mm 1 m/s 602 mmHg 80%
    23:00 -7°C° 0 mm 1 m/s 602 mmHg 79%

    Amanhã, 25 Fevereiro, Domingo

    Tempo Temperatura Precipitação Vento Pressão Humidade
    00:00 -7°C° 0 mm 1 m/s 602 mmHg 78%
    01:00 -7°C° 0 mm 1 m/s 602 mmHg 75%
    02:00 -8°C° 0 mm 2 m/s 601 mmHg 73%
    03:00 -8°C° 0 mm 2 m/s 601 mmHg 71%
    04:00 -8°C° 0 mm 2 m/s 602 mmHg 70%
    05:00 -8°C° 0 mm 2 m/s 602 mmHg 69%
    06:00 -8°C° 0 mm 2 m/s 602 mmHg 68%
    07:00 -4°C° 0 mm 1 m/s 603 mmHg 64%
    08:00 -2°C° 0 mm 1 m/s 604 mmHg 61%
    09:00 0°C° 0 mm 1 m/s 605 mmHg 57%
    10:00 +1°C° 0 mm 1 m/s 605 mmHg 57%
    11:00 +2°C° 0 mm 1 m/s 605 mmHg 57%
    12:00 +2°C° 0 mm 2 m/s 606 mmHg 56%
    13:00 +2°C° 0 mm 2 m/s 605 mmHg 58%
    14:00 +2°C° 0 mm 2 m/s 605 mmHg 60%
    15:00 +2°C° 0 mm 2 m/s 605 mmHg 61%
    16:00 -1°C° 0 mm 2 m/s 604 mmHg 69%
    17:00 -3°C° 0 mm 2 m/s 603 mmHg 77%
    18:00 -5°C° 0 mm 2 m/s 602 mmHg 84%
    19:00 -6°C° 0 mm 2 m/s 602 mmHg 85%
    20:00 -6°C° 0 mm 2 m/s 603 mmHg 86%
    21:00 -7°C° 0 mm 2 m/s 603 mmHg 87%
    22:00 -7°C° 0 mm 2 m/s 602 mmHg 84%
    23:00 -7°C° 0 mm 2 m/s 602 mmHg 82%

    Depois de amanhã, 26 Fevereiro, Segunda-feira

    Tempo Temperatura Precipitação Vento Pressão Humidade
    00:00 -8°C° 0 mm 2 m/s 602 mmHg 79%
    01:00 -8°C° 0 mm 2 m/s 602 mmHg 78%
    02:00 -8°C° 0 mm 2 m/s 602 mmHg 78%
    03:00 -8°C° 0 mm 2 m/s 602 mmHg 77%
    04:00 -9°C° 0 mm 2 m/s 602 mmHg 77%
    05:00 -9°C° 0 mm 2 m/s 601 mmHg 77%
    06:00 -9°C° 0 mm 2 m/s 601 mmHg 77%
    07:00 -8°C° 0 mm 2 m/s 602 mmHg 73%
    08:00 -6°C° 0 mm 2 m/s 603 mmHg 68%
    09:00 -5°C° 0 mm 2 m/s 603 mmHg 64%
    10:00 -4°C° 0 mm 2 m/s 604 mmHg 60%
    11:00 -3°C° 0 mm 2 m/s 604 mmHg 56%
    12:00 -2°C° 0 mm 2 m/s 604 mmHg 53%
    13:00 -2°C° 0 mm 2 m/s 604 mmHg 55%
    14:00 -3°C° 0 mm 2 m/s 603 mmHg 58%
    15:00 -3°C° 0 mm 2 m/s 602 mmHg 60%
    16:00 -5°C° 0,1 mm 2 m/s 602 mmHg 66%
    17:00 -7°C° 0,1 mm 2 m/s 601 mmHg 71%
    18:00 -8°C° 0,1 mm 2 m/s 601 mmHg 77%
    19:00 -8°C° 0,2 mm 1 m/s 601 mmHg 76%
    20:00 -8°C° 0,2 mm 1 m/s 601 mmHg 75%
    21:00 -9°C° 0,2 mm 1 m/s 601 mmHg 74%
    22:00 -9°C° 0,2 mm 1 m/s 601 mmHg 74%
    23:00 -9°C° 0,2 mm 1 m/s 600 mmHg 74%

    27 Fevereiro, Terça-feira

    Tempo Temperatura Precipitação Vento Pressão Humidade
    00:00 -9°C° 0,2 mm 1 m/s 600 mmHg 74%
    01:00 -10°C° 0,2 mm 1 m/s 600 mmHg 74%
    02:00 -10°C° 0,2 mm 1 m/s 600 mmHg 75%
    03:00 -10°C° 0,2 mm 0 m/s 599 mmHg 75%
    04:00 -10°C° 0,1 mm 0 m/s 599 mmHg 75%
    05:00 -10°C° 0,1 mm 0 m/s 599 mmHg 75%
    06:00 -10°C° 0,1 mm 0 m/s 599 mmHg 76%
    07:00 -9°C° 0,1 mm 1 m/s 600 mmHg 72%
    08:00 -8°C° 0,1 mm 1 m/s 600 mmHg 69%
    09:00 -8°C° 0,1 mm 1 m/s 601 mmHg 66%
    10:00 -7°C° 0,1 mm 1 m/s 601 mmHg 64%
    11:00 -6°C° 0,1 mm 1 m/s 601 mmHg 62%
    12:00 -6°C° 0,1 mm 2 m/s 601 mmHg 60%
    13:00 -6°C° 0,2 mm 2 m/s 601 mmHg 62%
    14:00 -6°C° 0,2 mm 2 m/s 601 mmHg 64%
    15:00 -6°C° 0,2 mm 1 m/s 600 mmHg 65%
    16:00 -6°C° 0,2 mm 1 m/s 600 mmHg 69%
    17:00 -7°C° 0,2 mm 1 m/s 600 mmHg 72%
    18:00 -8°C° 0,2 mm 1 m/s 600 mmHg 75%
    19:00 -8°C° 0,2 mm 1 m/s 600 mmHg 75%
    20:00 -8°C° 0,2 mm 1 m/s 600 mmHg 76%
    21:00 -9°C° 0,2 mm 1 m/s 600 mmHg 77%
    22:00 -9°C° 0,1 mm 1 m/s 600 mmHg 78%
    23:00 -9°C° 0,1 mm 1 m/s 600 mmHg 79%

    28 Fevereiro, Quarta-feira

    Tempo Temperatura Precipitação Vento Pressão Humidade
    00:00 -10°C° 0,1 mm 2 m/s 600 mmHg 80%
    01:00 -9°C° 0 mm 2 m/s 600 mmHg 81%
    02:00 -9°C° 0 mm 2 m/s 600 mmHg 81%
    03:00 -9°C° 0 mm 2 m/s 600 mmHg 82%
    04:00 -9°C° 0 mm 2 m/s 599 mmHg 83%
    05:00 -9°C° 0 mm 2 m/s 599 mmHg 84%
    06:00 -9°C° 0 mm 2 m/s 599 mmHg 84%
    07:00 -8°C° 0,1 mm 2 m/s 599 mmHg 83%
    08:00 -7°C° 0,1 mm 3 m/s 599 mmHg 81%
    09:00 -6°C° 0,1 mm 3 m/s 599 mmHg 80%
    10:00 -7°C° 0,6 mm 4 m/s 599 mmHg 80%
    11:00 -5°C° 0,6 mm 4 m/s 599 mmHg 81%
    12:00 -4°C° 0,6 mm 4 m/s 599 mmHg 81%
    13:00 -3°C° 0,7 mm 4 m/s 598 mmHg 81%
    14:00 -3°C° 0,7 mm 4 m/s 598 mmHg 82%
    15:00 -2°C° 0,7 mm 4 m/s 598 mmHg 82%
    16:00 -3°C° 0,6 mm 4 m/s 597 mmHg 85%
    17:00 -3°C° 0,6 mm 4 m/s 597 mmHg 88%
    18:00 -4°C° 0,6 mm 3 m/s 596 mmHg 90%
    19:00 -2°C° 0,7 mm 3 m/s 596 mmHg 91%
    20:00 -2°C° 0,7 mm 3 m/s 596 mmHg 91%
    21:00 -2°C° 0,7 mm 3 m/s 596 mmHg 91%
    22:00 -2°C° 0,8 mm 3 m/s 596 mmHg 92%
    23:00 -2°C° 0,8 mm 3 m/s 596 mmHg 92%

    1 Março, Quinta-feira

    Tempo Temperatura Precipitação Vento Pressão Humidade
    00:00 -2°C° 0,8 mm 3 m/s 596 mmHg 92%
    01:00 -2°C° 0,7 mm 3 m/s 595 mmHg 92%
    02:00 -2°C° 0,7 mm 3 m/s 595 mmHg 92%
    03:00 -2°C° 0,7 mm 3 m/s 595 mmHg 92%
    04:00 -2°C° 0,2 mm 2 m/s 595 mmHg 92%
    05:00 -2°C° 0,2 mm 2 m/s 595 mmHg 92%
    06:00 -2°C° 0,2 mm 2 m/s 595 mmHg 93%
    07:00 -1°C° 0,1 mm 2 m/s 595 mmHg 91%
    08:00 0°C° 0,1 mm 3 m/s 596 mmHg 89%
    09:00 +1°C° 0,1 mm 3 m/s 596 mmHg 87%
    10:00 +2°C° 0,7 mm 3 m/s 596 mmHg 86%
    11:00 +1°C° 0,7 mm 4 m/s 596 mmHg 84%
    12:00 +1°C° 0,7 mm 4 m/s 596 mmHg 83%
    13:00 +1°C° 0,7 mm 4 m/s 595 mmHg 83%
    14:00 +1°C° 0,7 mm 4 m/s 595 mmHg 84%
    15:00 0°C° 0,7 mm 4 m/s 594 mmHg 84%
    16:00 +1°C° 0,3 mm 3 m/s 594 mmHg 86%
    17:00 0°C° 0,3 mm 3 m/s 594 mmHg 89%
    18:00 0°C° 0,3 mm 3 m/s 593 mmHg 91%
    19:00 0°C° 0,4 mm 3 m/s 594 mmHg 91%
    20:00 0°C° 0,4 mm 3 m/s 594 mmHg 92%
    21:00 0°C° 0,4 mm 3 m/s 594 mmHg 92%
    22:00 -1°C° 0,2 mm 3 m/s 594 mmHg 92%
    23:00 -1°C° 0,2 mm 3 m/s 593 mmHg 92%
    Mostrar mais